Bardufoss, Norja

26. toukokuuta 2018 klo 17:14 (CEST) (GMT +0200)
Bardufoss Air Base | | Change Station

Kork 259 ft 69.05 °N, 18.55 °E | Updated 24 minutes ago

Scattered Clouds
Vähäistä pilvisyyttä
48 °F
Tuntuu kuin 48 °F
N
22
Tuuli Suunnaltaan vaihteleva Tuuli ilmansuunnasta Lännen ja luoteen välinen

Tänään
Korkea -- | Matala -- °F
--% Sateen mahd.
Eilen
Korkea -- | Matala -- °F
Precip. -- tuumaa
Ilmanpaine 30.39 tuumaa
Näkyvyys 6.2 mailia
Pilviä Harvoja pilviä 4700 ft
Vähäistä pilvisyyttä 6200 ft
Kastepiste 32 °F
Ilmankosteus 54%
Sademäärä 0.00 tuumaa
Lumensyvyys Ei saatavilla
1:15 AM 0:10 AM
Kasvava kupera kuu, 91% visible
METAR ENDU 261450Z AUTO 29019KT 9999 FEW047/// SCT062/// 09/00 Q1029 RMK
Ilmanpaine 30.39 tuumaa
Näkyvyys 6.2 mailia
Pilviä Harvoja pilviä 4700 ft
Vähäistä pilvisyyttä 6200 ft
Kastepiste 32 °F
Ilmankosteus 54%
Sademäärä 0.00 tuumaa
Lumensyvyys Ei saatavilla
1:15 AM 0:10 AM
Kasvava kupera kuu, 91% visible
METAR ENDU 261450Z AUTO 29019KT 9999 FEW047/// SCT062/// 09/00 Q1029 RMK

Get Severe Weather Alerts

Thanks for signing up!

Be on the lookout for a verification email in your inbox.

You'll start receiving the daily forecast at 6 AM.

×

10-Day Weather Forecast

×

Almanac

Tähtitiede

May. 26, 2018 Nousuaika Laskuaika
Valoisa aika
Porvarillinen hämärä
Nauttinen hämärä
Astronominen hämärä
Kuu
Näkyvän valon pituus
Päivän pituus
Tomorrow will be .
, % of the Moon is Illuminated

Tämän päivän ennätykset

Country Highs Country Lows

Community

WunderPhotos

Category 6

Welcome to Category 6. This is the collective home for Weather Underground's featured writeups by Dr. Jeff Masters (right), Bob Henson (left), Chris Burt, and other regular contributors.

Nearby

Ilmanlaatu

  Ilmanlaatu AQ Index Pollutant
Not available.

Lumensyvyys

Station Depth Korkeus

Maanjäristysaktiivisuus

Paikkakunta Distance Mag. Time & Date
Minimum magnitude displayed is 2.5.

Coastal Water Temperatures

Paikka Lämpötila

Stations

Lähimmät sääasemat

Aseman sijainti Lämpötila Tuulen hyytävyys Kastepiste Ilmankosteus Tuuli Precip. Kork Päivitetty Tyyppi